Terminal Aerodrome Forecast
Issued by NWS

Home | Current Version | Previous Version | Text Only | Print | Product List | Glossary On
Versions: 1 2 3 4 5 6 7 8 9 10 11 12 13 14 15 16 17 18 19 20 21 22
000
FTUS46 KMFR 010500 RRA
TAFRBG
TAF
KRBG 010555Z 0106/0206 35007KT P6SM SCT050
     FM011200 VRB03KT 4SM BR OVC006
     FM011700 01006KT P6SM FEW015=

USA.gov is the U.S. government's official web portal to all federal, state and local government web resources and services.